GW4340 Weather Reports


time (UTC)temp
C
wind
direction
speed
KPH
gust
KPH
rain 1hr
cm
rain 24hr
cm
rain mn
cm
humidity
%
barometer
mb
20260506132022 24 0.0 0.0 0.00 0.00 0.00 33 1011.1
20260506131122 24 0.0 0.0 0.00 0.00 0.00 33 1011.2
20260506130222 24 0.0 0.0 0.00 0.00 0.00 31 1011.2
20260506125322 25 0.0 0.0 0.00 0.00 0.00 31 1011.2
20260506124422 26 0.0 0.0 0.00 0.00 0.00 32 1010.9
20260506123522 26 0.0 0.0 0.00 0.00 0.00 33 1010.8
20260506122622 26 0.0 0.0 0.00 0.00 0.00 32 1010.9
20260506121737 26 0.0 0.0 0.00 0.00 0.00 31 1011.0
20260506120822 26 0.0 0.0 0.00 0.00 0.00 30 1011.0
20260506115922 25 0.0 0.0 0.00 0.00 0.00 33 1011.3
20260506115022 25 0.0 0.0 0.00 0.00 0.00 34 1011.5
20260506114138 23 0.0 0.0 0.00 0.00 0.00 32 1012.0
20260506113222 23 0.0 0.0 0.00 0.00 0.00 36 1012.4
20260506112322 23 0.0 0.0 0.00 0.00 0.00 34 1012.3
20260506111437 25 0.0 0.0 0.00 0.00 0.00 37 1011.8
20260506110522 25 0.0 0.0 0.00 0.00 0.00 34 1011.9
20260506105622 25 0.0 0.0 0.00 0.00 0.00 35 1011.7
20260506104722 25 0.0 0.0 0.00 0.00 0.00 37 1012.0
20260506103822 25 0.0 0.0 0.00 0.00 0.00 38 1012.1
20260506102922 25 0.0 0.0 0.00 0.00 0.00 37 1012.1
20260506102022 24 0.0 0.0 0.00 0.00 0.00 39 1012.3
20260506101122 24 0.0 0.0 0.00 0.00 0.00 39 1012.4
20260506100222 23 0.0 0.0 0.00 0.00 0.00 36 1012.5
20260506095322 23 0.0 0.0 0.00 0.00 0.00 38 1012.7
20260506094438 23 0.0 0.0 0.00 0.00 0.00 38 1012.7
20260506093522 23 0.0 0.0 0.00 0.00 0.00 41 1012.9
20260506092638 23 0.0 0.0 0.00 0.00 0.00 36 1013.0
20260506091722 23 0.0 0.0 0.00 0.00 0.00 36 1013.0
20260506090822 23 0.0 0.0 0.00 0.00 0.00 39 1013.1
20260506085922 22 0.0 0.0 0.00 0.00 0.00 40 1013.2
20260506085038 22 0.0 0.0 0.00 0.00 0.00 35 1013.3
20260506084123 22 0.0 0.0 0.00 0.00 0.00 39 1013.3
20260506083222 22 0.0 0.0 0.00 0.00 0.00 38 1013.2
20260506082322 22 0.0 0.0 0.00 0.00 0.00 42 1013.3
20260506081422 22 0.0 0.0 0.00 0.00 0.00 38 1013.1
20260506080522 22 0.0 0.0 0.00 0.00 0.00 38 1013.1
20260506072937 23 0.0 0.0 0.00 0.00 0.00 39 1013.1
20260506072023 22 0.0 0.0 0.00 0.00 0.00 39 1013.1
20260506071122 23 0.0 0.0 0.00 0.00 0.00 36 1013.0
20260506070222 25 0.0 0.0 0.00 0.00 0.00 33 1012.4
20260506061722 27 0.0 0.0 0.00 0.00 0.00 38 1011.9
20260506060823 26 0.0 0.0 0.00 0.00 0.00 40 1012.0
20260506050522 16 0.0 0.0 0.00 0.00 0.00 77 1014.2
20260506044722 12 0.0 0.0 0.00 0.00 0.00 98 1015.2
20260506043823 11 0.0 0.0 0.00 0.00 0.00 10 1015.4
20260506042937 10 0.0 0.0 0.00 0.00 0.00 10 1015.8
20260506042023 9 0.0 0.0 0.00 0.00 0.00 10 1016.1
20260506041122 8 0.0 0.0 0.00 0.00 0.00 10 1016.3
20260506040222 8 0.0 0.0 0.00 0.00 0.00 10 1016.3
20260506035323 8 0.0 0.0 0.00 0.00 0.00 10 1016.4
20260506034422 8 0.0 0.0 0.00 0.00 0.00 10 1016.4
20260506033522 7 0.0 0.0 0.00 0.00 0.00 10 1016.5
20260506032622 7 0.0 0.0 0.00 0.00 0.00 10 1016.3
20260506031722 7 0.0 0.0 0.00 0.00 0.00 10 1016.3
20260506030822 7 0.0 0.0 0.00 0.00 0.00 10 1016.2
20260506025937 7 0.0 0.0 0.00 0.00 0.00 10 1016.2
20260506025022 7 0.0 0.0 0.00 0.00 0.00 10 1016.1
20260506024137 8 0.0 0.0 0.00 0.00 0.00 10 1016.0
20260506023222 8 0.0 0.0 0.00 0.00 0.00 10 1015.9
20260506022322 8 0.0 0.0 0.00 0.00 0.00 10 1015.9
20260506021422 8 0.0 0.0 0.00 0.00 0.00 10 1015.9
20260506020522 8 0.0 0.0 0.00 0.00 0.00 10 1016.0
20260506015622 8 0.0 0.0 0.00 0.00 0.00 10 1016.1
20260506014722 8 0.0 0.0 0.00 0.00 0.00 10 1016.0
20260506013822 8 0.0 0.0 0.00 0.00 0.00 10 1016.1
20260506012922 7 0.0 0.0 0.00 0.00 0.00 10 1016.1
20260506012023 8 0.0 0.0 0.00 0.00 0.00 10 1016.2
20260506011122 8 0.0 0.0 0.00 0.00 0.00 10 1016.2
20260506010222 8 0.0 0.0 0.00 0.00 0.00 10 1016.1
20260506005353 8 0.0 0.0 0.00 0.00 0.00 10 1016.0
20260506004438 8 0.0 0.0 0.00 0.00 0.00 10 1016.0
20260506003522 8 0.0 0.0 0.00 0.00 0.00 10 1015.9
20260506002622 7 0.0 0.0 0.00 0.00 0.00 10 1016.1
20260506001723 8 0.0 0.0 0.00 0.00 0.00 10 1016.1
20260506000822 8 0.0 0.0 0.00 0.00 0.00 10 1015.9
20260505235922 9 0.0 0.0 0.00 0.00 0.00 99 1015.7
20260505235022 8 0.0 0.0 0.00 0.00 0.00 10 1016.0
20260505234122 8 0.0 0.0 0.00 0.00 0.00 10 1016.1
20260505233222 8 0.0 0.0 0.00 0.00 0.00 10 1016.2
20260505232337 8 0.0 0.0 0.00 0.00 0.00 10 1016.2
20260505231422 8 0.0 0.0 0.00 0.00 0.00 10 1016.3
20260505230537 9 0.0 0.0 0.00 0.00 0.00 10 1016.3
20260505225637 9 0.0 0.0 0.00 0.00 0.00 10 1016.2
20260505224722 9 0.0 0.0 0.00 0.00 0.00 10 1016.2
20260505223838 9 0.0 0.0 0.00 0.00 0.00 10 1016.3
20260505222922 10 0.0 0.0 0.00 0.00 0.00 10 1016.2
20260505222022 10 0.0 0.0 0.00 0.00 0.00 10 1016.3
20260505221123 10 0.0 0.0 0.00 0.00 0.00 10 1016.3
20260505220222 10 0.0 0.0 0.00 0.00 0.00 10 1016.1
20260505215322 10 0.0 0.0 0.00 0.00 0.00 10 1016.1
20260505214437 10 0.0 0.0 0.00 0.00 0.00 10 1016.2
20260505213522 10 0.0 0.0 0.00 0.00 0.00 10 1016.2
20260505212622 10 0.0 0.0 0.00 0.00 0.00 10 1016.0
20260505211738 10 0.0 0.0 0.00 0.00 0.00 10 1016.2
20260505210822 10 0.0 0.0 0.00 0.00 0.00 10 1016.2
20260505205922 10 0.0 0.0 0.00 0.00 0.00 10 1016.3
20260505205022 10 0.0 0.0 0.00 0.00 0.00 10 1016.3
20260505204157 10 0.0 0.0 0.00 0.00 0.00 10 1016.2
20260505203222 11 0.0 0.0 0.00 0.00 0.00 10 1016.2
20260505202322 11 0.0 0.0 0.00 0.00 0.00 10 1016.1
20260505201437 11 0.0 0.0 0.00 0.00 0.00 99 1016.0
20260505200522 11 0.0 0.0 0.00 0.00 0.00 10 1016.1
20260505195637 12 0.0 0.0 0.00 0.00 0.00 99 1015.9
20260505194722 12 0.0 0.0 0.00 0.00 0.00 99 1015.9
20260505193823 12 0.0 0.0 0.00 0.00 0.00 91 1015.8
20260505192922 12 0.0 0.0 0.00 0.00 0.00 95 1015.9
20260505192022 12 0.0 0.0 0.00 0.00 0.00 10 1015.9
20260505191122 12 0.0 0.0 0.00 0.00 0.00 97 1015.7
20260505190222 12 0.0 0.0 0.00 0.00 0.00 10 1015.8
20260505185322 12 0.0 0.0 0.00 0.00 0.00 96 1015.7
20260505184422 12 0.0 0.0 0.00 0.00 0.00 94 1015.6
20260505183522 12 0.0 0.0 0.00 0.00 0.00 93 1015.5
20260505182622 13 0.0 0.0 0.00 0.00 0.00 90 1015.4
20260505181722 13 0.0 0.0 0.00 0.00 0.00 88 1015.2
20260505180822 13 0.0 0.0 0.00 0.00 0.00 84 1015.1
20260505175923 13 0.0 0.0 0.00 0.00 0.00 83 1014.9
20260505175022 14 0.0 0.0 0.00 0.00 0.00 78 1014.8
20260505174122 15 0.0 0.0 0.00 0.00 0.00 77 1014.4
20260505173222 15 0.0 0.0 0.00 0.00 0.00 75 1014.3
20260505172323 16 0.0 0.0 0.00 0.00 0.00 73 1014.0
20260505171437 17 0.0 0.0 0.00 0.00 0.00 65 1013.8
20260505170522 18 0.0 0.0 0.00 0.00 0.00 61 1013.6
20260505165622 19 0.0 0.0 0.00 0.00 0.00 56 1013.3
20260505164722 20 0.0 0.0 0.00 0.00 0.00 51 1013.1
20260505163822 21 0.0 0.0 0.00 0.00 0.00 49 1012.9
20260505162922 21 0.0 0.0 0.00 0.00 0.00 46 1012.9
20260505162022 21 0.0 0.0 0.00 0.00 0.00 43 1012.8
20260505161122 21 0.0 0.0 0.00 0.00 0.00 43 1012.8
20260505160222 21 0.0 0.0 0.00 0.00 0.00 42 1012.9
20260505152622 22 0.0 0.0 0.00 0.00 0.00 39 1012.7
20260505151722 22 0.0 0.0 0.00 0.00 0.00 38 1012.8
20260505150822 22 0.0 0.0 0.00 0.00 0.00 39 1012.7
20260505140522 23 0.0 0.0 0.00 0.00 0.00 39 1012.6